When you browse on this site, cookies collect data to enhance your experience and personalize the content and advertising you see.
Visit our Privacy Policy to learn more. By continuing to use the site, you agree to this use of cookies and data.
  • In Spain
  • List of Countries
  • For 7 days
  • Water Temperature
  • Satellite Maps
  • Weather Map
  • Weather Widgets
  • user-avatar
    Login

    Hourly Weather Zobwe

    Today, 18 June, Tuesday

    Time Temperature Precipitation Wind Pressure Humidity
    00:00 +19°C° 0 mm 4 mps 725 mmHg 82%
    01:00 +18°C° 0 mm 4 mps 725 mmHg 84%
    02:00 +18°C° 0 mm 4 mps 725 mmHg 86%
    03:00 +18°C° 0 mm 4 mps 724 mmHg 88%
    04:00 +17°C° 0 mm 4 mps 724 mmHg 91%
    05:00 +17°C° 0 mm 3 mps 724 mmHg 93%
    06:00 +18°C° 0 mm 3 mps 725 mmHg 87%
    07:00 +20°C° 0 mm 3 mps 725 mmHg 80%
    08:00 +21°C° 0 mm 3 mps 726 mmHg 73%
    09:00 +23°C° 0 mm 4 mps 725 mmHg 65%
    10:00 +26°C° 0 mm 4 mps 725 mmHg 58%
    11:00 +27°C° 0 mm 4 mps 725 mmHg 50%
    12:00 +28°C° 0 mm 4 mps 725 mmHg 48%
    13:00 +28°C° 0 mm 4 mps 724 mmHg 46%
    14:00 +29°C° 0 mm 3 mps 723 mmHg 45%
    15:00 +28°C° 0 mm 3 mps 723 mmHg 48%
    16:00 +27°C° 0 mm 3 mps 723 mmHg 52%
    17:00 +26°C° 0 mm 3 mps 723 mmHg 56%
    18:00 +23°C° 0 mm 4 mps 724 mmHg 62%
    19:00 +22°C° 0 mm 4 mps 724 mmHg 69%
    20:00 +21°C° 0 mm 5 mps 725 mmHg 75%
    21:00 +20°C° 0 mm 5 mps 725 mmHg 79%
    22:00 +20°C° 0 mm 5 mps 725 mmHg 83%
    23:00 +20°C° 0 mm 5 mps 725 mmHg 86%

    Tomorrow, 19 June, Wednesday

    Time Temperature Precipitation Wind Pressure Humidity
    00:00 +19°C° 0.1 mm 5 mps 725 mmHg 87%
    01:00 +19°C° 0.1 mm 5 mps 724 mmHg 89%
    02:00 +19°C° 0.1 mm 5 mps 724 mmHg 90%
    03:00 +19°C° 0 mm 5 mps 724 mmHg 91%
    04:00 +18°C° 0 mm 4 mps 724 mmHg 92%
    05:00 +18°C° 0 mm 4 mps 724 mmHg 93%
    06:00 +19°C° 0 mm 4 mps 725 mmHg 89%
    07:00 +20°C° 0 mm 4 mps 726 mmHg 84%
    08:00 +20°C° 0 mm 4 mps 726 mmHg 80%
    09:00 +22°C° 0 mm 4 mps 726 mmHg 73%
    10:00 +23°C° 0 mm 4 mps 726 mmHg 65%
    11:00 +26°C° 0 mm 4 mps 725 mmHg 57%
    12:00 +26°C° 0 mm 4 mps 725 mmHg 55%
    13:00 +27°C° 0 mm 5 mps 724 mmHg 53%
    14:00 +27°C° 0 mm 5 mps 724 mmHg 51%
    15:00 +26°C° 0 mm 5 mps 724 mmHg 54%
    16:00 +25°C° 0 mm 5 mps 724 mmHg 57%
    17:00 +23°C° 0 mm 5 mps 724 mmHg 60%
    18:00 +22°C° 0 mm 5 mps 724 mmHg 65%
    19:00 +21°C° 0 mm 5 mps 724 mmHg 70%
    20:00 +20°C° 0 mm 5 mps 725 mmHg 75%
    21:00 +19°C° 0 mm 5 mps 725 mmHg 76%
    22:00 +19°C° 0 mm 5 mps 725 mmHg 77%
    23:00 +18°C° 0 mm 4 mps 725 mmHg 77%

    Day after tomorrow, 20 June, Thursday

    Time Temperature Precipitation Wind Pressure Humidity
    00:00 +18°C° 0 mm 4 mps 725 mmHg 78%
    01:00 +17°C° 0 mm 4 mps 724 mmHg 80%
    02:00 +17°C° 0 mm 4 mps 724 mmHg 81%
    03:00 +15°C° 0 mm 4 mps 724 mmHg 84%
    04:00 +15°C° 0 mm 4 mps 724 mmHg 87%
    05:00 +14°C° 0 mm 4 mps 725 mmHg 90%
    06:00 +17°C° 0 mm 4 mps 725 mmHg 83%
    07:00 +18°C° 0 mm 4 mps 725 mmHg 76%
    08:00 +19°C° 0 mm 4 mps 726 mmHg 69%
    09:00 +21°C° 0 mm 4 mps 726 mmHg 64%
    10:00 +22°C° 0 mm 4 mps 725 mmHg 58%
    11:00 +23°C° 0 mm 4 mps 725 mmHg 53%
    12:00 +25°C° 0 mm 4 mps 725 mmHg 50%
    13:00 +25°C° 0 mm 5 mps 724 mmHg 47%
    14:00 +26°C° 0 mm 5 mps 723 mmHg 45%
    15:00 +25°C° 0 mm 5 mps 723 mmHg 48%
    16:00 +23°C° 0 mm 4 mps 723 mmHg 51%
    17:00 +22°C° 0 mm 4 mps 723 mmHg 55%
    18:00 +20°C° 0 mm 4 mps 723 mmHg 59%
    19:00 +19°C° 0 mm 4 mps 724 mmHg 64%
    20:00 +18°C° 0 mm 4 mps 724 mmHg 69%
    21:00 +18°C° 0 mm 4 mps 724 mmHg 72%
    22:00 +17°C° 0 mm 4 mps 724 mmHg 75%
    23:00 +17°C° 0 mm 4 mps 724 mmHg 79%

    21 June, Friday

    Time Temperature Precipitation Wind Pressure Humidity
    00:00 +15°C° 0 mm 4 mps 724 mmHg 82%
    01:00 +15°C° 0 mm 4 mps 723 mmHg 85%
    02:00 +14°C° 0 mm 3 mps 723 mmHg 88%
    03:00 +14°C° 0 mm 3 mps 723 mmHg 90%
    04:00 +14°C° 0 mm 3 mps 723 mmHg 91%
    05:00 +14°C° 0 mm 3 mps 723 mmHg 93%
    06:00 +16°C° 0 mm 3 mps 724 mmHg 85%
    07:00 +18°C° 0 mm 3 mps 724 mmHg 78%
    08:00 +19°C° 0 mm 3 mps 725 mmHg 70%
    09:00 +20°C° 0 mm 3 mps 725 mmHg 66%
    10:00 +21°C° 0 mm 3 mps 725 mmHg 61%
    11:00 +23°C° 0 mm 2 mps 724 mmHg 56%
    12:00 +24°C° 0 mm 2 mps 724 mmHg 55%
    13:00 +24°C° 0 mm 2 mps 723 mmHg 53%
    14:00 +25°C° 0 mm 2 mps 722 mmHg 51%
    15:00 +24°C° 0 mm 2 mps 722 mmHg 55%
    16:00 +24°C° 0 mm 3 mps 722 mmHg 58%
    17:00 +22°C° 0 mm 3 mps 722 mmHg 61%
    18:00 +21°C° 0 mm 3 mps 722 mmHg 67%
    19:00 +19°C° 0 mm 2 mps 723 mmHg 73%
    20:00 +18°C° 0 mm 2 mps 723 mmHg 79%
    21:00 +18°C° 0 mm 2 mps 723 mmHg 81%
    22:00 +18°C° 0 mm 2 mps 723 mmHg 83%
    23:00 +18°C° 0 mm 2 mps 723 mmHg 86%

    22 June, Saturday

    Time Temperature Precipitation Wind Pressure Humidity
    00:00 +17°C° 0 mm 2 mps 722 mmHg 88%
    01:00 +17°C° 0 mm 2 mps 722 mmHg 90%
    02:00 +16°C° 0 mm 2 mps 722 mmHg 92%
    03:00 +16°C° 0 mm 2 mps 722 mmHg 92%
    04:00 +16°C° 0 mm 2 mps 722 mmHg 92%
    05:00 +16°C° 0 mm 2 mps 722 mmHg 93%
    06:00 +17°C° 0 mm 2 mps 722 mmHg 86%
    07:00 +19°C° 0 mm 2 mps 723 mmHg 79%
    08:00 +20°C° 0 mm 3 mps 723 mmHg 73%
    09:00 +22°C° 0 mm 3 mps 723 mmHg 64%
    10:00 +25°C° 0 mm 3 mps 723 mmHg 56%
    11:00 +26°C° 0 mm 3 mps 723 mmHg 48%
    12:00 +27°C° 0 mm 2 mps 722 mmHg 46%
    13:00 +27°C° 0 mm 2 mps 721 mmHg 44%
    14:00 +28°C° 0 mm 2 mps 721 mmHg 42%
    15:00 +27°C° 0 mm 3 mps 721 mmHg 47%
    16:00 +25°C° 0 mm 3 mps 721 mmHg 52%
    17:00 +24°C° 0 mm 3 mps 721 mmHg 56%
    18:00 +22°C° 0 mm 4 mps 722 mmHg 62%
    19:00 +21°C° 0 mm 4 mps 722 mmHg 67%
    20:00 +19°C° 0 mm 4 mps 723 mmHg 73%
    21:00 +19°C° 0 mm 4 mps 723 mmHg 76%
    22:00 +18°C° 0 mm 4 mps 723 mmHg 79%
    23:00 +18°C° 0 mm 4 mps 723 mmHg 83%

    23 June, Sunday

    Time Temperature Precipitation Wind Pressure Humidity
    00:00 +18°C° 0 mm 4 mps 723 mmHg 83%
    01:00 +17°C° 0 mm 3 mps 722 mmHg 84%
    02:00 +17°C° 0 mm 3 mps 722 mmHg 85%
    03:00 +17°C° 0 mm 3 mps 722 mmHg 86%
    04:00 +17°C° 0 mm 4 mps 722 mmHg 88%
    05:00 +17°C° 0 mm 4 mps 723 mmHg 90%
    06:00 +18°C° 0 mm 4 mps 723 mmHg 85%
    07:00 +19°C° 0 mm 5 mps 724 mmHg 79%
    08:00 +20°C° 0 mm 6 mps 724 mmHg 74%
    09:00 +22°C° 0 mm 5 mps 724 mmHg 69%
    10:00 +23°C° 0 mm 5 mps 724 mmHg 63%
    11:00 +25°C° 0 mm 5 mps 724 mmHg 57%
    12:00 +25°C° 0 mm 5 mps 724 mmHg 59%
    13:00 +23°C° 0 mm 5 mps 724 mmHg 61%
    14:00 +23°C° 0 mm 6 mps 723 mmHg 63%
    15:00 +22°C° 0 mm 6 mps 723 mmHg 68%
    16:00 +21°C° 0 mm 6 mps 723 mmHg 72%
    17:00 +20°C° 0 mm 6 mps 723 mmHg 77%
    18:00 +19°C° 0 mm 6 mps 724 mmHg 79%
    19:00 +17°C° 0 mm 6 mps 724 mmHg 81%
    20:00 +17°C° 0 mm 6 mps 725 mmHg 84%
    21:00 +16°C° 0 mm 6 mps 725 mmHg 84%
    22:00 +16°C° 0 mm 6 mps 725 mmHg 83%
    23:00 +16°C° 0 mm 6 mps 725 mmHg 83%
    Show more